TimeEST,TemperatureF,Dew PointF,Humidity,Sea Level PressureIn,VisibilityMPH,Wind Direction,Wind SpeedMPH,Gust SpeedMPH,PrecipitationIn,Events,Conditions,WindDirDegrees,DateUTC
12:53 AM,30.0,28.0,92,30.24,2.5,Calm,Calm,-,N/A,,Clear,0,2012-11-20 05:53:00
1:02 AM,30.2,28.4,93,30.20,3.0,Calm,Calm,-,N/A,,Clear,0,2012-11-20 06:02:00
1:18 AM,30.2,28.4,93,30.20,2.0,Calm,Calm,-,N/A,,Clear,0,2012-11-20 06:18:00
1:34 AM,28.4,26.6,93,30.19,3.0,Calm,Calm,-,N/A,,Clear,0,2012-11-20 06:34:00
1:53 AM,30.0,28.9,96,30.23,3.0,Calm,Calm,-,N/A,,Clear,0,2012-11-20 06:53:00
2:25 AM,30.2,28.4,93,30.19,2.0,Calm,Calm,-,N/A,,Clear,0,2012-11-20 07:25:00
2:53 AM,30.9,28.9,92,30.22,1.8,Calm,Calm,-,N/A,,Clear,0,2012-11-20 07:53:00
3:09 AM,32.0,30.2,93,30.19,2.5,Calm,Calm,-,N/A,,Clear,0,2012-11-20 08:09:00
3:24 AM,30.2,28.4,93,30.19,1.8,Calm,Calm,-,N/A,,Clear,0,2012-11-20 08:24:00
3:34 AM,30.2,28.4,93,30.18,2.5,Calm,Calm,-,N/A,,Clear,0,2012-11-20 08:34:00
3:48 AM,30.2,28.4,93,30.18,1.8,Calm,Calm,-,N/A,,Clear,0,2012-11-20 08:48:00
3:53 AM,28.9,28.0,96,30.21,2.0,Calm,Calm,-,N/A,,Clear,0,2012-11-20 08:53:00
4:53 AM,30.0,28.9,96,30.22,2.0,Calm,Calm,-,N/A,,Clear,0,2012-11-20 09:53:00
5:01 AM,30.2,28.4,93,30.17,1.8,Calm,Calm,-,N/A,,Clear,0,2012-11-20 10:01:00
5:08 AM,30.2,28.4,93,30.17,2.0,Calm,Calm,-,N/A,,Clear,0,2012-11-20 10:08:00
5:43 AM,30.2,28.4,93,30.16,1.8,NNE,3.5,-,N/A,,Clear,30,2012-11-20 10:43:00
5:53 AM,30.0,28.0,92,30.21,1.8,Calm,Calm,-,N/A,,Clear,0,2012-11-20 10:53:00
6:00 AM,28.4,28.4,100,30.17,2.0,WNW,3.5,-,N/A,,Clear,290,2012-11-20 11:00:00
6:53 AM,28.0,26.1,92,30.21,3.0,Calm,Calm,-,N/A,,Clear,0,2012-11-20 11:53:00
7:05 AM,28.4,26.6,93,30.16,2.5,Calm,Calm,-,N/A,,Clear,0,2012-11-20 12:05:00
7:16 AM,26.6,26.6,100,30.16,1.5,Calm,Calm,-,N/A,,Clear,0,2012-11-20 12:16:00
7:53 AM,28.9,28.0,96,30.22,1.5,Calm,Calm,-,N/A,,Clear,0,2012-11-20 12:53:00
8:53 AM,34.0,32.0,92,30.21,1.5,Calm,Calm,-,N/A,,Clear,0,2012-11-20 13:53:00
9:53 AM,36.0,34.0,93,30.21,1.8,Calm,Calm,-,N/A,,Clear,0,2012-11-20 14:53:00
10:18 AM,37.4,33.8,87,30.16,2.0,Calm,Calm,-,N/A,,Clear,0,2012-11-20 15:18:00
10:53 AM,39.9,36.0,86,30.20,2.5,Calm,Calm,-,N/A,,Clear,0,2012-11-20 15:53:00
11:05 AM,41.0,35.6,81,30.15,3.0,Calm,Calm,-,N/A,,Haze,0,2012-11-20 16:05:00
11:53 AM,45.0,35.1,68,30.16,8.0,Calm,Calm,-,N/A,,Clear,0,2012-11-20 16:53:00
12:53 PM,46.9,35.1,63,30.14,9.0,Calm,Calm,-,N/A,,Clear,0,2012-11-20 17:53:00
1:53 PM,48.0,35.1,61,30.12,10.0,Calm,Calm,-,N/A,,Clear,0,2012-11-20 18:53:00
2:53 PM,48.0,36.0,63,30.12,10.0,SE,3.5,-,N/A,,Clear,130,2012-11-20 19:53:00
3:53 PM,46.9,36.0,66,30.13,9.0,Calm,Calm,-,N/A,,Clear,0,2012-11-20 20:53:00
4:53 PM,43.0,35.1,74,30.13,7.0,North,4.6,-,N/A,,Clear,10,2012-11-20 21:53:00
5:53 PM,41.0,34.0,76,30.14,7.0,Calm,Calm,-,N/A,,Clear,0,2012-11-20 22:53:00
6:53 PM,41.0,34.0,76,30.15,7.0,Calm,Calm,-,N/A,,Clear,0,2012-11-20 23:53:00
7:53 PM,39.9,34.0,79,30.16,7.0,Calm,Calm,-,N/A,,Clear,0,2012-11-21 00:53:00
8:53 PM,39.0,33.1,79,30.17,7.0,Calm,Calm,-,N/A,,Scattered Clouds,0,2012-11-21 01:53:00
9:53 PM,35.1,32.0,89,30.17,6.0,South,3.5,-,N/A,,Clear,190,2012-11-21 02:53:00
10:53 PM,35.1,32.0,89,30.17,4.0,Calm,Calm,-,N/A,,Clear,0,2012-11-21 03:53:00
11:53 PM,35.1,33.1,92,30.17,4.0,Calm,Calm,-,N/A,,Clear,0,2012-11-21 04:53:00